Time,TemperatureF,DewpointF,PressureIn,WindDirection,WindDirectionDegrees,WindSpeedMPH,WindSpeedGustMPH,Humidity,HourlyPrecipIn,Conditions,Clouds,dailyrainin,SoftwareType,DateUTC
2013-01-15 00:09:00,41.2,-40.9,30.20,NNW,337,17.0,-999.0,2,-99.99,,,0.00,Acu-Link.com,2013-01-15 07:09:00,
2013-01-15 00:24:00,41.2,-40.9,30.21,NNW,337,15.4,-999.0,2,-99.99,,,0.00,Acu-Link.com,2013-01-15 07:24:00,
2013-01-15 00:39:00,40.6,-29.1,30.21,NNE,22,16.1,-999.0,4,-99.99,,,0.00,Acu-Link.com,2013-01-15 07:39:00,
2013-01-15 00:55:00,39.7,-29.7,30.21,NW,315,9.4,-999.0,4,-99.99,,,0.00,Acu-Link.com,2013-01-15 07:55:00,
2013-01-15 01:10:00,39.9,-29.6,30.21,North,0,14.1,-999.0,4,-99.99,,,0.00,Acu-Link.com,2013-01-15 08:10:00,
2013-01-15 01:25:00,40.1,-29.5,30.22,NNW,337,15.4,-999.0,4,-99.99,,,0.00,Acu-Link.com,2013-01-15 08:25:00,
2013-01-15 01:40:00,39.2,-22.6,30.20,NNW,337,14.1,-999.0,6,-99.99,,,0.00,Acu-Link.com,2013-01-15 08:40:00,
2013-01-15 01:55:00,39.2,-19.7,30.21,NNW,337,15.0,-999.0,7,-99.99,,,0.00,Acu-Link.com,2013-01-15 08:55:00,
2013-01-15 02:14:00,38.8,-20.0,30.21,NNW,337,13.0,-999.0,7,-99.99,,,0.00,Acu-Link.com,2013-01-15 09:14:00,
2013-01-15 02:29:00,37.6,-14.0,30.23,NNW,337,11.4,-999.0,10,-99.99,,,0.00,Acu-Link.com,2013-01-15 09:29:00,
2013-01-15 02:44:00,36.9,-14.6,30.23,NNW,337,10.3,-999.0,10,-99.99,,,0.00,Acu-Link.com,2013-01-15 09:44:00,
2013-01-15 02:59:00,37.0,-14.4,30.23,NW,315,10.3,-999.0,10,-99.99,,,0.00,Acu-Link.com,2013-01-15 09:59:00,
2013-01-15 03:15:00,37.2,-14.3,30.24,NW,315,11.9,-999.0,10,-99.99,,,0.00,Acu-Link.com,2013-01-15 10:15:00,
2013-01-15 03:30:00,37.8,-13.9,30.24,NNW,337,9.8,-999.0,10,-99.99,,,0.00,Acu-Link.com,2013-01-15 10:30:00,
2013-01-15 03:45:00,37.2,-14.3,30.25,NNW,337,8.3,-999.0,10,-99.99,,,0.00,Acu-Link.com,2013-01-15 10:45:00,
2013-01-15 04:01:00,37.4,-14.1,30.25,NNW,337,14.1,-999.0,10,-99.99,,,0.00,Acu-Link.com,2013-01-15 11:01:00,
2013-01-15 04:16:00,37.4,-14.1,30.24,NNW,337,14.5,-999.0,10,-99.99,,,0.00,Acu-Link.com,2013-01-15 11:16:00,
2013-01-15 04:31:00,36.9,-12.7,30.24,NNW,337,14.5,-999.0,11,-99.99,,,0.00,Acu-Link.com,2013-01-15 11:31:00,
2013-01-15 04:47:00,36.7,-11.1,30.25,NW,315,11.0,-999.0,12,-99.99,,,0.00,Acu-Link.com,2013-01-15 11:47:00,
2013-01-15 05:02:00,36.7,-11.1,30.25,NNW,337,13.4,-999.0,12,-99.99,,,0.00,Acu-Link.com,2013-01-15 12:02:00,
2013-01-15 05:17:00,36.7,-12.8,30.25,North,0,11.0,-999.0,11,-99.99,,,0.00,Acu-Link.com,2013-01-15 12:17:00,
2013-01-15 05:32:00,35.6,-10.3,30.25,NW,315,11.4,-999.0,13,-99.99,,,0.00,Acu-Link.com,2013-01-15 12:32:00,
2013-01-15 05:47:00,35.2,-10.6,30.26,NNW,337,8.3,-999.0,13,-99.99,,,0.00,Acu-Link.com,2013-01-15 12:47:00,
2013-01-15 06:02:00,34.7,-11.0,30.26,North,0,9.4,-999.0,13,-99.99,,,0.00,Acu-Link.com,2013-01-15 13:02:00,
2013-01-15 06:17:00,34.5,-9.7,30.26,NNW,337,8.9,-999.0,14,-99.99,,,0.00,Acu-Link.com,2013-01-15 13:17:00,
2013-01-15 06:33:00,34.7,-9.6,30.27,North,0,11.4,-999.0,14,-99.99,,,0.00,Acu-Link.com,2013-01-15 13:33:00,
2013-01-15 06:49:00,34.7,-9.6,30.28,NNW,337,7.8,-999.0,14,-99.99,,,0.00,Acu-Link.com,2013-01-15 13:49:00,
2013-01-15 07:04:00,34.9,-9.4,30.28,NNW,337,11.0,-999.0,14,-99.99,,,0.00,Acu-Link.com,2013-01-15 14:04:00,
2013-01-15 07:19:00,34.3,-9.8,30.28,NNE,22,6.7,-999.0,14,-99.99,,,0.00,Acu-Link.com,2013-01-15 14:19:00,
2013-01-15 07:34:00,34.2,-10.0,30.29,NNW,337,9.8,-999.0,14,-99.99,,,0.00,Acu-Link.com,2013-01-15 14:34:00,
2013-01-15 07:50:00,34.0,-10.1,30.29,NNW,337,11.9,-999.0,14,-99.99,,,0.00,Acu-Link.com,2013-01-15 14:50:00,
2013-01-15 08:05:00,35.8,-10.2,30.30,NNW,337,13.4,-999.0,13,-99.99,,,0.00,Acu-Link.com,2013-01-15 15:05:00,
2013-01-15 08:20:00,36.3,-9.8,30.32,NNW,337,13.4,-999.0,13,-99.99,,,0.00,Acu-Link.com,2013-01-15 15:20:00,
2013-01-15 08:35:00,37.6,-12.1,30.33,NNW,337,15.4,-999.0,11,-99.99,,,0.00,Acu-Link.com,2013-01-15 15:35:00,
2013-01-15 08:50:00,40.3,-16.3,30.34,NNE,22,16.6,-999.0,8,-99.99,,,0.00,Acu-Link.com,2013-01-15 15:50:00,
2013-01-15 09:06:00,41.0,-18.3,30.35,North,0,15.0,-999.0,7,-99.99,,,0.00,Acu-Link.com,2013-01-15 16:06:00,
2013-01-15 09:21:00,41.9,-24.1,30.36,NNW,337,15.4,-999.0,5,-99.99,,,0.00,Acu-Link.com,2013-01-15 16:21:00,
2013-01-15 09:36:00,42.8,-23.4,30.37,ESE,112,14.1,-999.0,5,-99.99,,,0.00,Acu-Link.com,2013-01-15 16:36:00,
2013-01-15 09:51:00,43.5,-27.1,30.38,NE,45,19.0,-999.0,4,-99.99,,,0.00,Acu-Link.com,2013-01-15 16:51:00,
2013-01-15 10:07:00,44.2,-31.8,30.38,NNE,22,16.6,-999.0,3,-99.99,,,0.00,Acu-Link.com,2013-01-15 17:07:00,
2013-01-15 10:22:00,45.7,45.4,30.37,NNW,337,26.4,-999.0,99,-99.99,,,0.00,Acu-Link.com,2013-01-15 17:22:00,
2013-01-15 15:35:00,53.6,53.3,30.27,NNE,22,16.6,-999.0,99,-99.99,,,0.00,Acu-Link.com,2013-01-15 22:35:00,
2013-01-15 15:50:00,53.6,53.3,30.26,WNW,292,9.4,-999.0,99,-99.99,,,0.00,Acu-Link.com,2013-01-15 22:50:00,
2013-01-15 16:05:00,54.1,53.9,30.26,NNE,22,10.3,-999.0,99,-99.99,,,0.00,Acu-Link.com,2013-01-15 23:05:00,
2013-01-15 16:21:00,54.3,-32.3,30.26,NNE,22,13.0,-999.0,2,-99.99,,,0.00,Acu-Link.com,2013-01-15 23:21:00,
2013-01-15 16:36:00,54.1,-25.0,30.26,NNE,22,16.6,-999.0,3,-99.99,,,0.00,Acu-Link.com,2013-01-15 23:36:00,
2013-01-15 16:51:00,53.8,-19.9,30.26,North,0,11.9,-999.0,4,-99.99,,,0.00,Acu-Link.com,2013-01-15 23:51:00,
2013-01-15 17:06:00,53.2,-20.2,30.26,NE,45,15.0,-999.0,4,-99.99,,,0.00,Acu-Link.com,2013-01-16 00:06:00,
2013-01-15 17:21:00,53.1,-16.1,30.26,ENE,67,13.0,-999.0,5,-99.99,,,0.00,Acu-Link.com,2013-01-16 00:21:00,
2013-01-15 17:37:00,54.1,-11.7,30.26,NE,45,12.5,-999.0,6,-99.99,,,0.00,Acu-Link.com,2013-01-16 00:37:00,
2013-01-15 17:52:00,51.1,-10.8,30.26,East,90,6.7,-999.0,7,-99.99,,,0.00,Acu-Link.com,2013-01-16 00:52:00,
2013-01-15 18:07:00,50.4,-8.7,30.26,NNW,337,7.8,-999.0,8,-99.99,,,0.00,Acu-Link.com,2013-01-16 01:07:00,
2013-01-15 18:23:00,50.0,-9.0,30.27,NNW,337,7.4,-999.0,8,-99.99,,,0.00,Acu-Link.com,2013-01-16 01:23:00,
2013-01-15 18:38:00,49.3,-7.1,30.27,NNW,337,6.3,-999.0,9,-99.99,,,0.00,Acu-Link.com,2013-01-16 01:38:00,
2013-01-15 18:53:00,49.1,-7.2,30.27,North,0,7.4,-999.0,9,-99.99,,,0.00,Acu-Link.com,2013-01-16 01:53:00,
2013-01-15 19:08:00,48.4,-5.6,30.27,North,0,6.3,-999.0,10,-99.99,,,0.00,Acu-Link.com,2013-01-16 02:08:00,
2013-01-15 19:23:00,47.8,-6.1,30.28,NNE,22,4.7,-999.0,10,-99.99,,,0.00,Acu-Link.com,2013-01-16 02:23:00,
2013-01-15 19:38:00,47.8,-6.1,30.28,NNW,337,6.3,-999.0,10,-99.99,,,0.00,Acu-Link.com,2013-01-16 02:38:00,
2013-01-15 19:53:00,46.9,-4.8,30.28,NNW,337,6.3,-999.0,11,-99.99,,,0.00,Acu-Link.com,2013-01-16 02:53:00,
2013-01-15 20:09:00,46.6,-5.1,30.28,NNW,337,0.0,-999.0,11,-99.99,,,0.00,Acu-Link.com,2013-01-16 03:09:00,
2013-01-15 20:24:00,46.4,-5.2,30.29,NNW,337,0.0,-999.0,11,-99.99,,,0.00,Acu-Link.com,2013-01-16 03:24:00,
2013-01-15 20:39:00,45.3,-4.3,30.29,North,0,0.0,-999.0,12,-99.99,,,0.00,Acu-Link.com,2013-01-16 03:39:00,
2013-01-15 20:55:00,43.9,-2.2,30.29,NNW,337,0.0,-999.0,14,-99.99,,,0.00,Acu-Link.com,2013-01-16 03:55:00,
2013-01-15 21:10:00,42.4,-0.5,30.29,North,0,0.0,-999.0,16,-99.99,,,0.00,Acu-Link.com,2013-01-16 04:10:00,
2013-01-15 21:25:00,44.4,-1.7,30.28,NNW,337,6.3,-999.0,14,-99.99,,,0.00,Acu-Link.com,2013-01-16 04:25:00,
2013-01-15 21:41:00,44.6,-1.6,30.28,NW,315,4.7,-999.0,14,-99.99,,,0.00,Acu-Link.com,2013-01-16 04:41:00,
2013-01-15 21:56:00,43.7,-0.9,30.28,NNW,337,5.1,-999.0,15,-99.99,,,0.00,Acu-Link.com,2013-01-16 04:56:00,
2013-01-15 22:11:00,43.2,0.1,30.28,NW,315,2.7,-999.0,16,-99.99,,,0.00,Acu-Link.com,2013-01-16 05:11:00,
2013-01-15 22:26:00,42.1,-0.8,30.29,NNE,22,0.0,-999.0,16,-99.99,,,0.00,Acu-Link.com,2013-01-16 05:26:00,
2013-01-15 22:41:00,41.9,-1.0,30.28,NNW,337,4.3,-999.0,16,-99.99,,,0.00,Acu-Link.com,2013-01-16 05:41:00,
2013-01-15 22:56:00,41.9,-1.0,30.28,NNW,337,4.3,-999.0,16,-99.99,,,0.00,Acu-Link.com,2013-01-16 05:56:00,
2013-01-15 23:12:00,42.8,-0.2,30.29,NNW,337,0.0,-999.0,16,-99.99,,,0.00,Acu-Link.com,2013-01-16 06:12:00,
2013-01-15 23:27:00,44.8,-1.5,30.29,NW,315,7.8,-999.0,14,-99.99,,,0.00,Acu-Link.com,2013-01-16 06:27:00,
2013-01-15 23:42:00,45.0,-1.3,30.28,NNW,337,9.8,-999.0,14,-99.99,,,0.00,Acu-Link.com,2013-01-16 06:42:00,
2013-01-15 23:57:00,44.4,-1.7,30.29,NNW,337,5.1,-999.0,14,-99.99,,,0.00,Acu-Link.com,2013-01-16 06:57:00,